sat.trackr.live / text

‹ back to catalog

FORMOSAT 7-5

NORAD 44358 · 2019-036V

PAYLOAD ACTIVE UNKNOWN

§ Identity

Operator
Country
ROC
Launch date
2019-06-25
Launch site
AFETR
Launch vehicle
Mass (kg)
RCS (m²)

External: N2YO · Heavens-Above · Gunter

§ Orbital elements

Epoch: 2026-09-12T17:47:07.311840Z

Period
96.21 min
Inclination
23.9992°
Eccentricity
0.0000505
Mean motion
14.96798305 rev/d
Perigee alt
576.4 km
Apogee alt
577.1 km
Semi-major
6,954.9 km
B*
1.4103e-4
RAAN
37.9803°
Arg perigee
103.2831°
Mean anomaly
256.7726°
Rev number
39,548

§ Raw data

FORMOSAT 7-51 44358U 19036V   26255.74105685  .00001957  00000+0  14103-3 0  99922 44358  23.9992  37.9803 0000505 103.2831 256.7726 14.96798305395484

JSON: /api/v1/satellites/44358 · /tle

For live sub-satellite position, see the globe view (requires WebGL).

§ Visibility from observer

Set your observer location to see the next 7 days of passes ≥ 10°. The values pass through the URL so the page stays shareable.

No JS? Fill the form by hand. The geolocation button needs JavaScript.

§ Radio — SatNOGS DB

ModeDescriptionDownlinkUplink
CW Downlink 400.900 MHz

1 transmitter · refreshed weekly from db.satnogs.org